SCP
0 0 0 0 0 0 0 0 0 0 0 0 0 0 0 0 0 0 0 0 0 0
0 0 0 0 0 0 0 0 0 0 0 0 0 0 0 0 0 0 0 0 0 0
0 0 0 0 0 0 0 0 0 0 0 0 0 0 0 0 0 0 0 0 0 0
0 0 0 0 0 0 0 0 0 0 0 0 0 0 0 0 0 0 0 0 0 0
0 0 0 0 0 0 0 0 0 0 0 0 0 0 0 0 0 0 0 0 0 0
0 0 0 0 0 0 0 0 0 0 0 0 0 0 0 0 0 0 0 0 0 0
0 0 0 0 0 0 0 0 0 0 0 0 0 0 0 0 0 0 0 0 0 0
0 0 0 0 0 0 0 0 0 0 0 0 0 0 0 0 0 0 0 0 0 0
0 0 0 0 0 0 0 0 0 0 0 0 0 0 0 0 0 0 0 0 0 0
0 0 0 0 0 0 0 0 0 0 0 0 0 0 0 0 0 0 0 0 0 0
0 0 0 0 0 0 0 0 0 0 0 0 0 0 0 0 0 0 0 0 0 0
0 0 0 0 0 0 0 0 0 0 0 0 0 0 0 0 0 0 0 0 0 0
0 0 0 0 0 0 0 0 0 0 0 0 0 0 0 0 0 0 0 0 0 0
0 0 0 0 0 0 0 0 0 0 0 0 0 0 0 0 0 0 0 0 0 0
Wind_Speed_500mb
58 65 64 64 63 59 59 66 68 72 66 68 70 68 65 61 61 55 53 57 59 48
47 62 72 65 66 66 66 67 69 68 61 64 67 69 60 50 46 47 51 44 44 47
46 38 40 43 51 53 50 53 53 56 44 59 53 31 44 40 43 35 33 32 27 29
25 30 30 35 29 29 40 38 32 37 30 25 21 20 20 27 27 26 26 26 26 24
25 30 28 22 20 22 24 24 21 19 16 18 19 19 17 15 15 15 15 16 19 19
23 24 22 19 16 14 11 9 12 10 8 7 7 7 9 9 9 10 12 13 14 15
21 20 19 19 17 16 14 12 11 9 8 8 7 6 5 5 5 7 8 10 12 15
23 23 22 22 21 20 18 15 13 10 8 6 5 4 3 3 5 8 12 14 17 19
23 23 22 21 20 18 17 14 11 8 5 2 3 5 7 8 10 13 14 15 17 18
20 19 18 17 15 12 10 9 6 4 4 4 5 6 6 7 9 11 12 12 13 14
15 14 13 12 11 9 8 6 4 3 3 5 5 4 4 6 9 10 10 10 11 12
12 11 10 9 8 7 7 6 6 5 5 5 5 4 4 5 6 8 9 9 9 11
16 14 12 11 9 6 4 4 4 5 7 8 10 9 8 7 7 8 8 9 11 12
12 10 8 6 6 6 7 8 9 9 10 11 11 11 9 8 8 9 10 12 13 15
Wind_Direction_500mb
238 239 237 237 231 237 238 238 236 242 239 242 240 242 242 245 246 247 254 259 258 251
236 234 237 234 239 240 239 238 236 229 227 240 237 230 228 229 244 254 246 242 265 268
224 228 236 235 230 234 234 235 226 236 214 226 238 220 220 249 232 240 267 253 243 252
204 214 208 220 218 225 226 208 217 228 209 234 254 238 248 235 244 236 242 251 253 254
213 223 223 226 214 208 222 220 203 219 216 232 239 225 216 225 231 240 252 257 256 257
201 211 206 194 200 207 208 224 251 225 224 210 198 218 231 236 242 247 253 257 264 273
178 180 182 184 186 185 179 181 175 182 187 192 195 197 210 227 243 258 267 277 282 288
141 141 142 142 144 145 145 151 155 161 173 178 185 193 205 255 280 281 286 287 288 290
136 137 137 137 137 137 140 145 144 152 167 204 255 270 274 273 279 284 284 289 294 298
136 138 137 137 138 140 148 151 162 181 213 246 255 252 266 279 293 296 298 302 306 308
152 156 155 153 152 157 163 167 186 208 253 276 283 286 286 282 299 305 307 306 307 311
168 166 169 171 174 180 188 194 204 219 238 264 287 283 290 297 307 307 312 316 318 317
184 182 183 186 189 195 207 239 257 271 278 291 307 314 327 323 319 316 316 313 313 311
201 201 211 227 244 255 265 269 274 276 279 283 290 298 304 302 304 304 304 301 300 299
Wind_Speed_850mb
58 65 64 64 63 59 59 66 68 72 66 68 70 68 65 61 61 55 53 57 59 48
47 62 72 65 66 66 66 67 69 68 61 64 67 69 60 50 46 47 51 44 44 47
46 38 40 43 51 53 50 53 53 56 44 59 53 31 44 40 43 35 33 32 27 29
25 30 30 35 29 29 40 38 32 37 30 25 21 20 20 27 27 26 26 26 26 24
25 30 28 22 20 22 24 24 21 19 16 18 19 19 17 15 15 15 15 16 19 19
23 24 22 19 16 14 11 9 12 10 8 7 7 7 9 9 9 10 12 13 14 15
21 20 19 19 17 16 14 12 11 9 8 8 7 6 5 5 5 7 8 10 12 15
23 23 22 22 21 20 18 15 13 10 8 6 5 4 3 3 5 8 12 14 17 19
23 23 22 21 20 18 17 14 11 8 5 2 3 5 7 8 10 13 14 15 17 18
20 19 18 17 15 12 10 9 6 4 4 4 5 6 6 7 9 11 12 12 13 14
15 14 13 12 11 9 8 6 4 3 3 5 5 4 4 6 9 10 10 10 11 12
12 11 10 9 8 7 7 6 6 5 5 5 5 4 4 5 6 8 9 9 9 11
16 14 12 11 9 6 4 4 4 5 7 8 10 9 8 7 7 8 8 9 11 12
12 10 8 6 6 6 7 8 9 9 10 11 11 11 9 8 8 9 10 12 13 15
Wind_Direction_850mb
238 239 237 237 231 237 238 238 236 242 239 242 240 242 242 245 246 247 254 259 258 251
236 234 237 234 239 240 239 238 236 229 227 240 237 230 228 229 244 254 246 242 265 268
224 228 236 235 230 234 234 235 226 236 214 226 238 220 220 249 232 240 267 253 243 252
204 214 208 220 218 225 226 208 217 228 209 234 254 238 248 235 244 236 242 251 253 254
213 223 223 226 214 208 222 220 203 219 216 232 239 225 216 225 231 240 252 257 256 257
201 211 206 194 200 207 208 224 251 225 224 210 198 218 231 236 242 247 253 257 264 273
178 180 182 184 186 185 179 181 175 182 187 192 195 197 210 227 243 258 267 277 282 288
141 141 142 142 144 145 145 151 155 161 173 178 185 193 205 255 280 281 286 287 288 290
136 137 137 137 137 137 140 145 144 152 167 204 255 270 274 273 279 284 284 289 294 298
136 138 137 137 138 140 148 151 162 181 213 246 255 252 266 279 293 296 298 302 306 308
152 156 155 153 152 157 163 167 186 208 253 276 283 286 286 282 299 305 307 306 307 311
168 166 169 171 174 180 188 194 204 219 238 264 287 283 290 297 307 307 312 316 318 317
184 182 183 186 189 195 207 239 257 271 278 291 307 314 327 323 319 316 316 313 313 311
201 201 211 227 244 255 265 269 274 276 279 283 290 298 304 302 304 304 304 301 300 299